Pagrindinis puslapis
METAR-TAF:

METAR-TAF

Oro uostai :

Sälen Trysil, Švedija

platuma: 61-09-32N, ilguma: 12-50-24E, Aukštis: 490 m

Dabartinis oras

Ataskaita buvo paskelbta 40 minutes, ne 21:20 UTC
Vėjas 5 kt iš Rytų/Pietryčių
Temperatūra 9°C
Drėgmė 93%
Slėgis 1011 hPa
Matomumas 10 km arba daugiau

METAR: ESKS 162120Z AUTO 11005KT 9999 BKN087/// 09/08 Q1011

Laikas: 00:00 (22:00 UTC)


TAF: trūkstamas

Orai ataskaitas ir orų prognozės (METAR, TAF).

turimą stotys yra geltonos ir raudonos taškus žemėlapyje.

Perkelti pele per norėdami pamatyti stoties vardą.

Tada spustelėkite, norėdami matyti oro stebėjimo ir prognozės.

Norėdami pakeisti žemėlapį: spustelėkite ant žalios mygtukų su juodo kryžiaus žemyn,; žalią mygtuką su brūkšneliu, jei norite nutolinti; arba žalių rodyklių gretimoms žemėlapius.


METAR-TAF: